Location: Seattle
(47.6064°N, 122.3308°W)
Time: 18:10:03
(UTC-08:00)

N. Korean satellite - Pass Details

Date: 01 December 2022
Orbit: 408 x 444 km, 97.3° (Epoch: 28 January)

Event Time Altitude Azimuth Distance (km) Brightness Sun altitude
Rises 06:39:09 0° 357° (N) 2,529 9.9 -9.5°
Reaches altitude 10° 06:41:46 10° 336° (NNW) 1,642 8.8 -9.0°
Maximum altitude 06:44:03 17° 296° (WNW) 1,281 8.0 -8.7°
Drops below altitude 10° 06:46:19 10° 255° (WSW) 1,622 8.8 -8.3°
Sets 06:48:58 0° 234° (SW) 2,518 9.9 -7.9°
